Weather History for Toledo, OH

Change the Weather History Date:

Saturday, December 8, 2012

  Actual Average Record
Temperature  
Mean Temperature 39 °F 32 °F  
Max Temperature 43 °F 39 °F 65 °F (1966)
Min Temperature 34 °F 25 °F -7 °F (1977)
Degree Days  
Heating Degree Days 26 33  
Month to date heating degree days 168 254  
Since 1 July heating degree days 1505 1487  
Cooling Degree Days 0 0  
Month to date cooling degree days 0 0  
Year to date cooling degree days 998 793  
Moisture  
Dew Point 38 °F    
Average Humidity 91    
Maximum Humidity 100    
Minimum Humidity 82    
Precipitation  
Precipitation 0.05 in 0.09 in 0.74 in (1977)
Month to date precipitation 0.34 0.73  
Year to date precipitation 28.53 32.29  
Snow  
Snow 0.00 in 0.20 in - ()
Month to date snowfall 0.0 1.4  
Since 1 July snowfall T 3.5  
Snow Depth 0.00 in    
Sea Level Pressure  
Sea Level Pressure 29.91 in    
Wind  
Wind Speed 6 mph (NNE)    
Max Wind Speed 14 mph    
Max Gust Speed 18 mph    
Visibility 4 miles    
Events Fog , Rain    
T = Trace of Precipitation, MM = Missing Value Source: NWS Daily Summary

Daily Weather History Graph

Daily Weather History Graph

Search for Another Location

Airport:

Trip Planner

Search our weather history database for the weather conditions in past years. The results will help you decide how hot, cold, wet, or windy it might be!

Date:

Astronomy

Dec. 08, 2012 Rise Set
Actual Time 7:49 AM EST 5:04 PM EST
Civil Twilight 7:18 AM EST 5:36 PM EST
Nautical Twilight 6:43 AM EST 6:11 PM EST
Astronomical Twilight 6:10 AM EST 6:44 PM EST
Moon 2:09 AM EST (12/8) 1:37 PM EST (12/8)
Length of Visible Light 10h 17m
Length of Day
9h 15m
Waning Crescent, 28% of the Moon is Illuminated
Dec 8
Waning Crescent
Dec 13
New
Dec 20
First Quarter
Dec 28
Full
Jan 4
Last Quarter

Hourly Weather History & Observations

Time (EST) Temp. Windchill Dew Point Humidity Pressure Visibility Wind Dir Wind Speed Gust Speed Precip Events Conditions
12:47 AM 42.8 °F 39.3 °F 39.2 °F 87% 29.84 in 1.8 mi East 5.8 mph - 0.00 in Rain Light Rain
12:52 AM 42.1 °F 38.4 °F 39.9 °F 92% 29.85 in 1.8 mi East 5.8 mph - 0.01 in Rain Light Rain
1:05 AM 42.8 °F 39.3 °F 39.2 °F 87% 29.83 in 2.0 mi ENE 5.8 mph - 0.00 in Rain Light Rain
1:24 AM 42.8 °F 39.3 °F 39.2 °F 87% 29.82 in 1.8 mi East 5.8 mph - 0.00 in Rain Light Rain
1:52 AM 42.1 °F 37.7 °F 41.0 °F 96% 29.82 in 1.8 mi East 6.9 mph - 0.00 in Rain Light Rain
2:24 AM 42.8 °F 38.6 °F 41.0 °F 93% 29.82 in 2.0 mi ENE 6.9 mph - 0.01 in   Overcast
2:37 AM 42.8 °F 39.3 °F 41.0 °F 93% 29.82 in 1.8 mi NE 5.8 mph - 0.01 in   Overcast
2:52 AM 42.1 °F 39.2 °F 41.0 °F 96% 29.83 in 1.8 mi NE 4.6 mph - 0.01 in   Overcast
3:05 AM 42.8 °F 40.1 °F 41.0 °F 93% 29.82 in 2.0 mi NE 4.6 mph - N/A   Overcast
3:52 AM 42.1 °F 38.4 °F 39.9 °F 92% 29.83 in 1.8 mi ENE 5.8 mph - 0.01 in Rain Light Rain
4:17 AM 42.8 °F 41.1 °F 41.0 °F 93% 29.82 in 2.0 mi NE 3.5 mph - 0.00 in   Overcast
4:32 AM 42.8 °F - 41.0 °F 93% 29.82 in 1.8 mi Calm Calm - 0.00 in Rain Light Rain
4:48 AM 42.8 °F 40.1 °F 39.2 °F 87% 29.81 in 1.2 mi ENE 4.6 mph - 0.01 in Rain Light Rain
4:52 AM 42.1 °F 40.2 °F 39.9 °F 92% 29.82 in 1.2 mi ENE 3.5 mph - 0.01 in Rain Light Rain
5:03 AM 42.8 °F 41.1 °F 41.0 °F 93% 29.80 in 1.5 mi East 3.5 mph - 0.00 in Rain Light Rain
5:16 AM 42.8 °F 41.1 °F 39.2 °F 87% 29.80 in 2.0 mi ENE 3.5 mph - 0.00 in   Overcast
5:52 AM 42.1 °F 38.4 °F 39.9 °F 92% 29.81 in 2.5 mi NE 5.8 mph - 0.00 in   Overcast
6:48 AM 42.8 °F 40.1 °F 39.2 °F 87% 29.81 in 1.2 mi North 4.6 mph - N/A   Overcast
6:52 AM 41.0 °F 36.4 °F 39.9 °F 96% 29.83 in 1.0 mi North 6.9 mph - N/A   Overcast
7:01 AM 41.0 °F 38.0 °F 39.2 °F 93% 29.82 in 0.8 mi North 4.6 mph - N/A   Overcast
7:52 AM 41.0 °F - 39.9 °F 96% 29.84 in 0.5 mi Calm Calm - N/A Fog Fog
8:34 AM 41.0 °F - 39.2 °F 93% 29.84 in 0.2 mi Calm Calm - N/A Fog Fog
8:52 AM 41.0 °F - 39.9 °F 96% 29.86 in 0.2 mi Calm Calm - N/A Fog Fog
9:52 AM 41.0 °F 39.0 °F 41.0 °F 100% 29.88 in 0.2 mi WNW 3.5 mph - N/A Fog Fog
10:10 AM 41.0 °F 39.0 °F 41.0 °F 100% 29.88 in 0.5 mi NW 3.5 mph - 0.01 in Fog Fog
10:37 AM 41.0 °F 37.1 °F 39.2 °F 93% 29.89 in 1.0 mi NNW 5.8 mph - 0.01 in   Overcast
10:49 AM 41.0 °F 38.0 °F 39.2 °F 93% 29.89 in 1.8 mi NNW 4.6 mph - 0.01 in   Overcast
10:52 AM 41.0 °F 38.0 °F 39.9 °F 96% 29.90 in 2.0 mi NNW 4.6 mph - 0.01 in   Overcast
11:07 AM 42.8 °F 40.1 °F 39.2 °F 87% 29.89 in 4.0 mi NNW 4.6 mph - N/A   Overcast
11:22 AM 42.8 °F 39.3 °F 39.2 °F 87% 29.89 in 2.5 mi NNW 5.8 mph - N/A   Overcast
11:31 AM 42.8 °F 39.3 °F 39.2 °F 87% 29.89 in 3.0 mi North 5.8 mph - N/A   Overcast
11:52 AM 42.1 °F 37.7 °F 41.0 °F 96% 29.90 in 6.0 mi North 6.9 mph - N/A   Overcast
12:05 PM 42.8 °F 38.6 °F 39.2 °F 87% 29.88 in 9.0 mi North 6.9 mph - N/A   Overcast
12:52 PM 39.9 °F 32.5 °F 37.9 °F 93% 29.91 in 3.0 mi North 12.7 mph - N/A   Overcast
1:52 PM 37.9 °F 30.9 °F 36.0 °F 93% 29.94 in 10.0 mi North 10.4 mph - N/A   Overcast
2:52 PM 37.9 °F 30.9 °F 35.1 °F 89% 29.97 in 10.0 mi North 10.4 mph - N/A   Overcast
3:08 PM 37.4 °F 29.8 °F 35.6 °F 93% 29.96 in 10.0 mi North 11.5 mph - N/A   Overcast
3:52 PM 37.9 °F 31.5 °F 34.0 °F 86% 30.01 in 10.0 mi North 9.2 mph - N/A   Overcast
4:52 PM 37.9 °F 34.4 °F 34.0 °F 86% 30.04 in 10.0 mi North 4.6 mph - N/A   Overcast
5:18 PM 37.4 °F 31.4 °F 33.8 °F 87% 30.03 in 10.0 mi NNE 8.1 mph - N/A   Overcast
5:28 PM 37.4 °F 32.8 °F 33.8 °F 87% 30.03 in 10.0 mi North 5.8 mph - N/A   Overcast
5:52 PM 37.0 °F 32.4 °F 33.1 °F 86% 30.06 in 10.0 mi North 5.8 mph - N/A   Overcast
6:52 PM 37.0 °F 31.6 °F 33.1 °F 86% 30.09 in 10.0 mi North 6.9 mph - N/A   Overcast
7:52 PM 35.1 °F 30.1 °F 30.9 °F 85% 30.11 in 10.0 mi North 5.8 mph - N/A   Scattered Clouds
8:47 PM 33.8 °F 28.6 °F 30.2 °F 87% 30.11 in 10.0 mi North 5.8 mph - N/A   Mostly Cloudy
8:52 PM 34.0 °F 28.8 °F 30.9 °F 89% 30.13 in 10.0 mi North 5.8 mph - N/A   Mostly Cloudy
9:52 PM 35.1 °F 29.3 °F 30.9 °F 85% 30.13 in 10.0 mi NE 6.9 mph - N/A   Overcast
10:52 PM 35.1 °F 27.9 °F 30.9 °F 85% 30.14 in 10.0 mi NE 9.2 mph - N/A   Overcast
11:52 PM 35.1 °F 28.6 °F 30.9 °F 85% 30.16 in 10.0 mi NE 8.1 mph - N/A   Overcast